Location: Bittelbronn
(48.4454°N, 8.5870°E)
Time: 15:25:27
(UTC+00:00)

Cosmos 1953 - Pass Details

Date: 16 August 2024
Orbit: 504 x 523 km, 82.5° (Epoch: 18 September)

Event Time Altitude Azimuth Distance (km) Brightness Sun altitude
Exits shadow 03:22:04 12° 221° (SW) 1,599 4.1 -9.5°
Maximum altitude 03:25:13 35° 286° (WNW) 856 3.0 -9.1°
Drops below altitude 10° 03:28:48 10° 353° (N) 1,767 5.3 -8.6°
Sets 03:31:06 0° 3° (N) 2,665 6.3 -8.3°
